Regional Weather Roundup
Issued by NWS

Home | Current Version | Previous Version | Text Only | Print | Product List | Glossary On
Versions: 1 2 3 4 5 6 7 8 9 10 11 12 13 14 15 16 17 18 19 20 21 22 23 24 25 26 27 28 29 30 31 32 33 34 35 36 37 38 39 40 41 42 43 44 45 46 47 48 49 50
357
ASUS42 KKEY 230310
RWRKEY

FLORIDA REGIONAL WEATHER ROUNDUP FOR THE FLORIDA KEYS
NATIONAL WEATHER SERVICE KEY WEST FLORIDA
1100 PM EDT TUE AUG 22 2017

...SOUTH FLORIDA AND THE KEYS...

CITY           SKY/WX    TMP DP  RH WIND       PRES   REMARKS
FORT MYERS     CLOUDY    82  76  81 E6        30.00S
SW REGIONAL AP CLOUDY    81  74  79 E3        30.01R
NAPLES         CLOUDY    80  76  87 SE8       30.00R
MIAMI          MOCLDY    86  76  71 E7        30.00R HX  96
WEST KENDALL   CLOUDY    85  76  74 SE6       29.99R HX  94
HOMESTEAD      CLOUDY    84  77  80 SE5       29.99S HX  94
MARATHON       CLOUDY    81  78  91 SW8G16    29.98R
BOCA CHICA NAS CLOUDY    84  80  88 NW5       29.97S THUNDER HX  97
KEY WEST INTL  CLOUDY    85  78  80 CALM      29.97R HX  96

...INTERNATIONAL WEATHER...

CITY           SKY/WX    TMP DP  RH WIND       PRES   REMARKS
NASSAU BAHAMAS MOCLDY    84  77  79 E7        30.00S HX  94
CANCUN MEXICO  MOCLDY    82  79  89 SE7       29.95S HX  93
COZUMEL MEXICO MOCLDY    79  77  94 SE6       29.94R

ADJACENT COASTAL WATERS...

STATION/POSITION TIME  SKY/WX   TEMP    WIND        PRES    WAVE
                                AIR SEA DIR/SP/G            HT/PER
                 (UTC)          (F)     (DEG/KT/KT) (MB)    (FT/S)
PULASKI SHOAL LI 0300            85     310/  9/ 10 1015.4R
SAND KEY         0250            85                 1015.9R
LONG KEY         NOT AVBL
MOLASSES REEF    NOT AVBL
FOWEY ROCKS      0200            84 85   90/ 14/ 15 1015.5F
Buoy 42097       0230               87                N/A     2/ 5

$$




USA.gov is the U.S. government's official web portal to all federal, state and local government web resources and services.